Lapse_Rate
5.6 6.0 6.0 6.0 6.0 6.3 6.5 6.7 6.7 7.0 7.2 6.7 6.5 6.6 6.6 6.8 7.1 7.0 7.1 7.1 7.1 6.9 6.8 6.7 6.7 6.6 6.5 6.4 6.4 6.3 6.1 5.9 5.8 5.5 5.5 5.5 5.7 5.9 6.2 6.0 5.5 5.4 5.8 5.8
5.6 6.0 5.9 6.0 6.1 6.2 6.3 6.4 6.8 6.9 6.8 6.3 6.5 6.5 6.7 6.9 7.1 7.0 6.8 7.0 6.9 6.7 6.6 6.5 6.4 6.3 6.1 6.2 6.2 6.1 5.9 5.8 5.1 5.3 5.7 5.6 5.6 5.8 6.1 6.0 5.9 5.7 4.8 5.9
5.6 5.9 5.9 6.0 6.1 5.9 6.1 6.5 6.5 6.6 6.5 6.5 6.6 6.6 6.7 6.8 6.8 7.0 7.0 6.7 6.4 6.3 6.2 6.3 6.2 5.8 5.7 6.0 6.0 5.7 5.8 6.0 6.1 5.9 5.6 5.4 5.8 6.1 6.3 6.4 6.1 5.9 6.0 6.1
5.7 5.9 6.0 6.0 5.9 5.9 6.2 6.5 6.7 6.8 6.5 6.4 6.5 6.4 6.7 6.8 6.7 6.7 6.2 6.3 6.4 6.3 6.1 5.8 5.5 5.2 5.4 5.4 5.2 5.4 5.7 5.6 5.9 5.6 5.6 5.9 5.9 6.2 6.2 6.3 6.2 6.0 6.1 6.1
5.5 6.0 6.0 5.9 5.8 6.0 6.3 6.5 6.5 6.5 6.6 6.4 6.6 6.7 6.8 6.7 6.7 6.4 6.7 6.5 6.1 5.9 5.7 5.5 5.4 5.3 5.2 5.4 5.4 5.3 5.4 5.3 5.9 5.5 5.7 5.8 6.1 6.3 6.2 6.4 6.2 6.1 6.3 6.2
5.5 6.1 6.1 5.9 5.8 6.1 6.2 6.4 6.5 6.5 6.5 6.6 6.7 7.0 7.0 6.7 6.5 6.5 6.4 6.2 6.0 5.8 5.6 5.3 5.0 4.7 4.7 4.7 5.3 5.8 6.1 6.3 6.4 5.9 6.0 6.2 6.4 6.0 5.9 5.9 6.0 6.2 6.2 6.0
5.7 6.1 6.1 6.0 5.9 6.3 6.5 6.5 6.4 6.3 6.5 6.5 6.6 6.8 6.6 6.7 6.8 7.0 6.5 6.2 6.0 5.5 4.9 4.6 4.7 4.8 4.9 5.1 5.7 6.3 6.8 7.2 7.3 6.6 6.4 5.2 5.6 5.8 5.9 6.1 5.8 5.8 6.0 6.2
5.8 6.1 6.0 6.0 6.0 6.3 6.3 6.4 6.3 6.2 6.6 6.7 6.6 6.7 6.9 6.8 6.8 6.5 6.3 6.4 5.7 5.2 4.9 4.5 4.5 4.6 5.0 5.6 6.5 6.9 7.4 7.2 7.2 7.0 6.3 5.7 5.7 5.7 5.8 6.1 5.9 5.9 5.9 6.2
5.9 6.1 6.1 6.0 6.2 6.3 6.3 6.1 6.3 6.5 6.9 6.6 6.5 6.7 6.8 7.0 6.6 6.5 6.5 5.4 5.1 5.2 4.9 4.9 4.8 5.2 5.6 6.2 6.8 7.2 7.2 7.1 7.1 6.7 6.4 5.9 5.6 5.5 5.7 5.7 5.7 5.3 5.7 5.8
6.0 6.1 6.1 6.0 6.3 6.2 6.1 6.2 6.4 6.7 7.0 7.3 7.1 6.9 7.2 6.6 6.7 6.6 6.1 5.7 6.0 5.4 5.4 5.6 5.3 5.3 5.9 6.2 6.1 6.5 6.5 6.6 6.8 6.8 6.0 5.6 5.4 5.5 5.8 5.8 5.5 5.7 5.7 5.8
6.0 6.2 6.0 6.1 6.1 6.3 6.1 6.4 6.7 7.0 7.3 7.1 6.9 6.7 6.5 6.5 6.7 6.6 6.5 6.5 6.1 5.4 5.5 4.9 4.9 5.3 5.2 5.4 5.5 6.3 6.3 6.3 6.4 6.3 5.8 5.2 5.4 5.5 5.6 5.5 5.8 5.7 5.8 5.8
6.2 6.0 6.0 6.1 6.1 6.3 6.4 6.5 6.5 6.6 6.8 7.4 6.8 6.3 6.2 6.5 6.5 6.6 6.7 6.7 6.4 5.7 5.4 4.8 4.9 4.7 4.6 4.9 5.1 5.4 5.6 5.8 5.7 5.7 5.2 5.6 5.4 5.2 5.4 5.8 5.9 5.8 5.9 6.0
6.2 5.9 6.1 6.0 6.3 6.6 6.6 6.5 6.8 7.0 6.8 6.8 6.1 6.1 6.3 6.4 6.5 6.1 6.1 7.0 6.8 6.2 5.5 5.3 4.9 4.9 4.6 4.4 4.7 4.9 5.1 5.3 5.1 5.3 5.3 5.2 5.4 5.5 5.8 5.8 5.7 5.7 5.8 5.6
6.0 6.0 5.9 6.3 6.6 6.7 6.5 6.6 6.8 6.9 7.1 6.9 5.9 6.1 6.2 6.8 6.8 6.7 6.5 6.9 7.0 6.4 5.6 5.8 5.4 5.1 4.9 4.7 4.7 4.9 4.9 5.0 5.1 5.1 5.2 5.3 5.5 5.6 5.9 5.5 5.7 5.8 5.5 5.8
6.1 6.1 6.1 6.5 6.7 6.1 6.3 6.4 6.4 6.6 6.9 7.3 6.1 5.8 6.4 6.3 6.2 6.0 6.3 6.8 6.8 6.4 5.9 5.7 5.6 5.0 4.6 4.5 4.7 4.9 5.0 5.2 5.5 5.3 5.4 5.4 5.5 5.6 5.7 5.7 5.5 5.4 5.3 5.6
6.4 6.1 6.4 6.4 6.1 6.1 6.5 6.4 6.5 6.5 7.1 7.1 6.3 5.6 5.3 5.4 5.4 5.7 6.2 6.5 6.5 6.5 6.2 5.9 5.4 5.0 4.7 4.4 4.7 4.6 5.0 5.2 5.5 5.4 5.4 5.5 5.5 5.7 5.7 5.7 5.5 5.7 5.8 5.9
6.3 6.3 6.1 5.8 6.4 6.7 6.4 6.5 6.9 6.4 6.8 7.4 6.0 4.8 4.9 5.1 5.1 5.7 6.0 6.0 6.1 6.0 6.1 5.7 5.6 5.0 4.9 4.5 4.7 4.8 4.9 5.0 5.2 5.4 5.5 5.5 5.4 5.5 5.7 5.6 5.5 5.6 5.7 6.0
6.3 6.1 6.0 6.6 6.5 6.2 6.8 7.1 6.9 7.0 6.7 7.1 6.5 5.1 5.0 5.0 5.1 5.8 5.8 5.8 5.5 5.4 5.8 5.6 5.5 5.4 4.7 4.6 4.9 4.9 4.8 5.0 5.0 5.4 5.6 5.6 5.5 5.6 5.6 5.7 5.7 5.9 6.1 6.1
6.3 6.2 6.4 6.3 6.1 6.4 6.8 7.0 6.7 6.6 6.7 7.1 6.9 6.6 5.6 5.1 5.2 5.6 5.5 5.6 5.6 5.3 5.3 5.3 5.4 5.6 5.6 4.9 4.7 4.7 4.7 5.1 5.4 5.6 5.7 5.8 5.8 5.8 5.8 5.9 5.9 5.9 6.0 6.0
6.2 6.2 5.9 5.9 6.1 6.7 6.9 6.6 6.4 6.5 6.9 7.4 7.2 7.2 6.9 5.7 5.6 5.6 5.3 5.5 5.4 5.2 5.1 5.1 5.2 5.7 5.3 4.8 4.9 5.1 5.3 5.7 5.8 5.8 5.7 5.7 5.8 5.9 5.9 5.8 5.8 5.8 5.9 6.0
6.3 6.0 5.6 6.2 6.6 6.6 6.4 6.2 6.5 6.8 7.0 7.4 6.9 6.9 7.2 6.1 6.0 6.0 5.6 5.7 5.5 5.6 5.4 5.6 5.5 5.4 5.4 4.9 4.9 5.2 5.6 5.9 6.0 5.9 5.9 5.9 5.9 6.0 6.0 6.0 5.9 5.9 5.9 6.1
6.1 6.1 6.4 6.4 6.2 6.4 6.5 6.4 6.7 6.9 7.4 7.1 6.9 6.4 6.3 6.3 5.9 5.9 5.8 5.8 5.6 5.8 5.7 5.8 6.0 5.8 5.6 5.4 5.2 5.1 5.4 5.5 5.5 5.6 5.6 5.9 6.0 6.1 6.2 6.1 6.1 6.1 6.2 6.2
6.5 6.9 6.5 6.4 6.6 6.6 6.5 6.5 6.6 7.0 7.4 7.3 7.3 6.8 6.5 6.1 6.2 6.3 6.2 6.1 6.0 6.1 5.9 6.2 6.3 6.1 6.1 5.9 5.7 5.5 5.6 5.5 5.4 5.3 5.3 5.5 5.7 5.9 6.0 6.1 6.2 6.3 6.3 6.3
6.8 6.7 6.4 6.9 6.6 6.4 6.4 6.8 7.5 8.0 8.0 7.7 7.1 6.9 6.6 6.5 6.6 6.7 6.4 6.2 6.1 6.1 6.4 6.7 6.7 6.5 6.3 6.1 5.8 5.5 5.6 5.6 5.6 5.5 5.5 5.5 5.5 5.5 5.6 5.7 5.8 5.9 6.0 6.2
6.8 6.7 7.1 6.9 6.6 6.9 7.4 7.6 7.8 7.8 7.6 7.6 6.9 6.9 7.0 7.0 7.0 7.1 6.8 6.6 6.6 6.9 7.2 7.3 7.0 6.7 6.4 6.2 6.0 5.8 5.7 5.7 5.7 5.8 5.7 5.7 5.7 5.5 5.5 5.6 5.7 5.9 6.0 6.1
7.2 7.3 7.0 7.0 7.3 7.7 7.6 7.6 7.7 7.7 7.5 6.8 6.5 6.8 6.7 7.0 7.2 7.3 7.3 7.3 7.4 7.5 7.4 7.5 7.2 6.9 6.5 6.3 6.1 5.8 5.7 5.8 5.7 5.7 5.7 5.8 5.8 5.9 5.9 5.9 5.9 5.9 6.0 6.1
7.4 7.3 7.5 7.7 7.5 7.9 7.6 7.5 7.8 7.5 7.1 6.8 6.7 7.0 7.0 7.3 7.4 7.4 7.7 7.7 7.5 7.5 7.6 7.4 7.2 7.0 6.6 6.2 6.0 5.9 5.8 5.8 5.7 5.8 5.8 5.9 6.2 6.0 6.4 6.6 6.6 6.5 6.5 6.7
Wind_Speed
16 14 9 8 8 9 4 2 1 3 2 2 1 3 5 3 2 3 4 3 3 3 5 5 4 3 3 4 2 3 3 4 5 4 3 3 4 4 3 4 2 3 4 4
16 14 10 8 7 3 3 2 2 2 3 3 1 2 4 4 4 4 3 4 4 5 3 5 3 4 3 4 2 1 2 3 4 5 4 4 5 3 4 4 3 1 4 4
17 14 10 8 8 5 2 0 2 3 2 1 7 4 2 3 4 4 4 3 5 5 5 6 4 2 3 2 3 3 2 5 3 4 5 2 4 6 2 4 4 1 3 2
19 16 12 8 9 6 2 2 5 5 4 2 5 4 4 4 1 1 5 6 6 3 4 3 4 2 0 1 1 2 4 5 15 13 14 14 10 7 11 7 5 6 4 2
17 14 10 8 9 4 2 2 2 3 2 4 7 4 2 5 4 4 4 7 9 11 5 1 4 6 3 2 5 4 3 5 11 6 11 14 8 13 13 12 10 6 8 5
20 17 15 12 12 9 3 3 3 4 3 4 5 3 6 7 5 10 7 13 11 11 6 6 7 7 5 3 3 4 3 5 4 3 8 6 8 6 6 5 6 3 6 6
22 19 16 15 15 14 1 3 1 3 2 5 3 5 7 5 3 8 2 6 6 3 5 4 7 8 9 12 9 5 4 3 2 4 4 4 4 3 3 2 3 5 7 9
22 20 18 16 15 11 2 3 3 3 4 10 9 13 13 11 9 6 5 7 2 4 5 4 5 5 5 6 11 13 5 3 3 3 5 4 1 1 1 3 5 6 9 8
22 20 18 16 12 11 3 3 2 3 6 3 2 7 5 5 4 4 4 4 4 6 3 3 3 1 2 4 4 8 11 8 4 1 4 3 1 3 2 2 4 4 6 9
23 21 18 15 13 13 5 3 1 4 5 3 2 3 5 5 4 5 1 2 3 4 3 4 2 1 2 3 3 4 4 3 3 3 3 4 3 2 1 1 3 8 7 12
23 21 18 14 14 13 6 4 2 5 4 3 4 2 4 3 3 5 4 4 4 4 4 3 1 3 1 4 3 2 3 2 2 2 4 3 1 2 1 1 4 7 12 12
23 20 17 15 14 15 15 3 5 3 6 5 1 2 1 3 6 6 3 5 3 4 5 2 3 4 3 1 2 4 3 1 2 2 2 2 2 1 2 5 8 8 7 13
23 19 16 14 14 16 15 5 7 8 8 7 5 4 6 2 3 3 5 2 4 4 3 4 3 6 2 2 3 1 2 4 2 1 4 3 3 4 5 7 8 9 12 12
21 18 16 16 18 22 15 4 2 5 5 4 4 4 5 4 7 8 4 6 8 7 4 4 4 4 2 2 2 2 2 3 4 3 2 5 6 5 5 11 12 10 10 9
20 17 17 20 23 19 10 4 2 5 6 5 3 4 9 9 12 12 11 11 6 4 4 4 3 3 4 1 2 2 3 1 1 1 2 2 7 10 16 13 12 9 7 5
19 19 21 21 22 23 4 4 4 13 7 6 4 3 8 9 10 10 9 6 5 4 4 3 3 3 3 3 2 2 3 3 3 3 1 5 15 15 13 2 3 3 6 8
21 20 18 19 15 4 3 6 8 13 4 4 4 3 5 4 5 4 5 5 4 4 3 3 3 3 3 2 1 3 6 6 7 9 6 4 5 6 12 12 10 13 10 8
22 23 28 22 22 11 4 4 15 6 5 4 4 1 3 2 1 2 2 3 4 5 3 3 3 2 2 2 3 4 4 6 4 4 5 3 4 9 11 10 11 14 12 9
29 32 28 5 4 3 2 3 4 4 4 4 3 5 5 1 1 2 3 3 4 1 3 2 3 1 1 4 4 3 2 2 5 4 6 6 7 6 8 9 10 10 9 9
30 7 4 2 2 1 3 6 4 5 3 3 3 2 4 5 1 2 3 2 3 3 2 3 3 1 2 2 3 4 6 6 4 4 4 5 6 7 8 10 8 8 7 8
4 3 2 3 0 4 4 3 4 1 3 2 2 6 8 1 4 3 1 3 2 3 3 4 1 1 3 4 3 4 5 5 7 7 6 7 6 6 6 8 9 7 7 8
7 7 5 3 4 4 6 0 1 3 5 2 8 6 4 1 4 4 2 3 2 2 3 3 1 3 5 7 5 3 3 8 7 7 7 7 7 7 6 5 6 6 6 7
4 5 4 3 3 6 6 6 1 3 3 5 5 5 4 3 4 3 3 3 2 3 3 4 4 5 8 7 5 4 2 7 7 7 7 8 7 7 6 6 5 6 8 6
4 4 4 3 2 4 4 5 5 4 11 12 6 3 4 2 3 3 4 2 3 2 2 5 3 10 10 7 5 4 6 6 7 7 6 7 7 6 5 6 5 7 7 6
4 4 4 2 1 1 3 4 7 12 11 6 5 4 4 2 4 1 4 3 3 5 5 4 7 11 11 7 5 6 7 5 4 4 4 6 6 5 4 3 5 6 6 7
3 4 4 2 6 4 6 11 14 10 5 3 4 4 4 2 5 3 4 7 6 4 3 6 10 11 9 7 7 7 6 6 5 4 3 3 4 6 6 5 6 6 6 7
4 3 3 3 5 4 5 10 11 3 4 3 4 4 2 4 3 3 5 5 4 6 8 8 11 10 11 8 8 7 7 6 5 3 3 2 4 6 7 7 6 6 5 6
Wind_Direction
209 223 232 255 288 313 304 272 99 265 80 72 62 134 135 106 9 6 29 98 66 71 63 59 78 118 58 331 288 6 4 112 62 84 129 62 74 111 99 112 157 65 119 276
207 216 223 242 263 278 302 217 192 333 82 139 81 43 60 66 36 16 39 35 54 56 88 96 85 84 278 332 58 106 340 84 118 158 232 20 38 24 113 109 80 339 110 257
205 213 220 231 250 250 232 104 89 336 46 260 131 115 98 103 22 28 53 29 65 74 48 49 123 127 231 186 140 166 76 31 145 157 113 142 15 355 59 115 74 199 167 182
202 206 209 224 246 241 223 170 228 186 200 263 141 109 126 119 114 329 18 32 0 136 94 77 100 101 350 34 15 107 88 82 90 93 94 84 61 35 42 52 136 111 223 36
202 198 208 206 225 209 260 220 154 21 146 94 100 82 141 157 90 352 38 94 56 75 84 176 128 119 48 24 343 42 75 118 102 83 91 91 71 28 41 34 7 27 50 20
196 196 204 205 212 183 262 267 294 112 270 100 94 195 158 154 140 22 108 120 86 80 122 112 110 106 95 78 85 20 77 144 138 118 155 73 46 351 26 95 31 339 35 307
198 198 201 204 211 196 313 274 349 90 9 87 96 86 85 77 42 121 88 66 99 158 109 81 47 48 64 51 28 28 99 105 70 140 125 64 238 227 245 98 44 15 332 339
196 198 201 204 214 203 200 293 11 88 76 105 87 90 109 81 54 61 70 28 45 91 65 71 56 358 27 51 61 38 66 89 87 124 80 91 304 76 84 90 359 353 329 334
194 198 201 205 207 197 198 259 210 98 121 348 306 103 117 115 98 32 31 3 34 67 71 68 89 110 354 20 15 54 44 70 90 77 91 124 222 99 167 336 44 291 309 314
191 198 200 199 207 199 205 277 225 90 102 324 20 126 155 136 97 103 161 149 57 62 65 69 104 27 87 48 41 354 6 26 53 60 95 49 359 27 297 115 249 295 306 306
192 197 197 194 210 203 176 263 287 117 104 350 29 49 110 86 96 137 218 60 351 52 68 105 195 87 81 83 39 64 55 12 36 46 87 118 30 157 241 268 276 272 291 297
190 195 192 197 210 206 197 59 337 117 83 168 283 92 142 142 172 128 48 169 147 168 91 66 101 63 50 70 68 24 70 37 83 16 105 276 281 251 300 280 264 277 287 301
189 191 183 199 201 201 189 131 132 84 88 49 43 354 321 49 77 144 117 287 156 66 151 137 116 81 85 55 34 53 8 7 81 102 336 313 281 269 259 276 275 304 302 299
186 185 183 194 196 201 190 134 200 88 101 89 326 324 14 359 52 50 90 132 64 93 63 75 78 101 52 76 107 65 327 334 356 52 4 327 272 258 278 296 304 299 303 305
183 179 182 190 201 182 115 90 18 115 116 141 161 345 3 30 69 69 69 77 83 64 58 65 79 103 98 58 93 33 344 6 60 110 38 287 272 294 306 285 281 291 312 41
175 175 186 192 189 162 71 56 337 121 116 112 73 298 23 33 63 69 65 70 69 86 96 104 55 34 97 81 62 278 311 301 232 262 333 263 278 293 314 73 338 5 72 82
166 175 182 172 142 82 123 173 165 155 99 89 83 44 323 6 40 13 51 40 69 86 100 57 79 14 54 71 107 283 305 291 281 259 257 282 334 343 5 39 50 59 52 50
159 157 143 138 113 107 42 1 130 118 88 78 102 89 36 18 16 51 47 61 34 23 110 63 88 12 58 94 235 276 288 305 317 32 73 33 329 20 26 30 37 46 33 27
151 129 120 86 47 79 180 29 80 84 114 117 105 131 176 121 202 122 35 83 57 323 87 91 89 67 164 185 179 236 277 289 284 347 68 26 31 23 34 37 33 50 30 26
125 86 73 50 248 352 79 14 32 20 354 59 99 141 133 122 142 55 91 42 136 84 241 108 79 85 61 168 211 266 295 289 204 100 40 31 35 33 35 37 33 36 24 20
72 89 103 219 257 63 38 74 92 309 59 63 121 123 130 201 110 143 160 159 144 95 233 112 114 186 204 176 232 280 311 47 77 95 74 70 73 60 49 39 37 32 26 21
165 123 109 85 49 47 88 99 347 82 164 105 134 140 140 94 107 94 341 105 59 151 151 84 135 221 158 165 195 213 60 71 77 84 76 71 72 71 75 65 49 40 32 27
75 70 75 91 313 52 133 159 236 125 155 146 130 119 121 59 56 71 83 76 183 111 56 186 212 163 156 164 171 180 107 89 91 94 90 90 85 79 87 78 50 57 54 28
84 108 75 134 271 213 181 166 157 181 130 131 120 82 110 123 69 134 94 170 100 79 124 224 192 164 161 164 171 148 166 139 122 132 125 123 119 115 104 96 82 73 64 53
80 76 115 177 208 45 119 131 110 123 127 112 100 62 87 60 104 83 117 128 196 193 215 198 162 153 155 158 151 148 134 127 127 124 130 140 159 140 127 122 96 78 69 57
69 66 75 12 73 34 89 115 125 134 120 91 63 101 87 121 133 122 181 147 205 219 176 145 142 146 148 149 148 135 135 123 109 111 110 100 108 145 151 124 94 85 86 71
51 27 64 109 83 104 109 140 136 121 81 111 110 92 147 114 98 170 170 190 190 144 131 136 139 141 142 138 117 120 122 117 119 104 52 8 74 88 78 76 94 80 53 77